Location: Argonnex
(45.9500°N, 6.1333°E)
Time: 16:53:53
(UTC+00:00)

BREEZE-M DEB (TANK) - Pass Details

Date: 28 January 2023
Orbit: 428 x 13835 km, 45.9° (Epoch: 29 March)

Event Time Altitude Azimuth Distance (km) Brightness Sun altitude
Rises 17:51:17 0° 262° (W) 2,398 7.6 -13.4°
Reaches altitude 10° 17:52:51 10° 262° (W) 1,627 6.2 -13.7°
Maximum altitude 17:55:56 87° 172° (S) 653 2.6 -14.2°
Enters shadow 17:59:54 21° 85° (E) 2,200 4.7 -14.9°
